{"data":{"norad_id":65715,"intl_designator":"2025-214D","name":"GEESAT-6 03","alt_names":[],"object_type":"PAYLOAD","status":"ACTIVE","operator":null,"country":"PRC","launch_date":"2025-09-24","launch_site_code":"YSLA","launch_vehicle":null,"mission":null,"orbit_class":"UNKNOWN","rcs_meters":null,"size_class":null,"mass_kg":null,"dimensions":null,"purposes":[],"wikipedia_slug":null,"has_3d_model":false,"image_url":null,"decayed_at":null,"tle_current":{"epoch":"2026-05-24T23:28:27.326784Z","epoch_age_seconds":70840,"freshness":"FRESH","line1":"1 65715U 25214D   26144.97809406  .00001448  00000+0  20247-3 0  9992","line2":"2 65715  49.9836  55.5995 0012955 132.6378 227.5654 14.83274877 36062","mean_motion":14.83274877,"eccentricity":0.0012955,"inclination_deg":49.9836,"raan_deg":55.5995,"arg_perigee_deg":132.6378,"mean_anomaly_deg":227.5654,"bstar":0.00020247,"rev_number":3606,"period_min":97.082477585845,"perigee_km":609.9411648499,"apogee_km":628.07076226848,"semimajor_km":6997.1429635592,"source":"CELESTRAK","updated_at":"2026-05-25T13:38:05.627012Z"}}}